Regional Weather Roundup
Issued by NWS Memphis, TN

Home | Current Version | Previous Version | Text Only | Print | Product List | Glossary On
Versions: 1 2 3 4 5 6 7 8 9 10 11 12 13 14 15 16 17 18 19 20 21 22 23 24 25 26 27 28 29 30 31 32 33 34 35 36 37 38 39 40 41 42 43 44 45 46 47 48 49 50
000
ASUS44 KMEG 271410
RWRMEG
MEMPHIS CWA HOURLY WEATHER ROUNDUP
NATIONAL WEATHER SERVICE MEMPHIS TN
900 AM CDT MON MAY 27 2019

...WEST TENNESSEE...

CITY           SKY/WX    TMP DP  RH WIND       PRES   REMARKS
MEMPHIS INTL   FAIR      83  71  67 SW9       30.04F
NWS MEMPHIS      N/A     83 N/A N/A MISG        N/A
JACKSON        FAIR      82  71  69 SW7       30.05F
COVINGTON      SUNNY     84  70  61 SW9       30.03S
BOLIVAR        SUNNY     82  72  69 CALM      30.05S
LEXINGTON      SUNNY     81  72  74 S5        30.05F
SELMER         SUNNY     81  70  69 SW6       30.06F
DYERSBURG      FAIR      83  70  64 SW8       30.04S
UNION CITY     SUNNY     82  70  65 SW8       30.02R
PARIS          SUNNY     82  70  65 W9        30.04S
HUNTINGDON     SUNNY     82  70  65 VRB5      30.05R


...EASTERN ARKANSAS...

CITY           SKY/WX    TMP DP  RH WIND       PRES   REMARKS
JONESBORO      FAIR      82  69  64 SW10      30.01F
WEST MEMPHIS   FAIR      83  71  67 S9        30.02S
BATESVILLE     PTSUNNY   78  71  79 SW7       30.02F
NEWPORT        FAIR      79  71  76 SW10      30.01F
WALNUT RIDGE   FAIR      80  71  74 SW14      30.00F
BLYTHEVILLE    FAIR      84  68  58 SW9       30.03S
SEARCY         FAIR      78  73  84 SW6       30.02F
STUTTGART      FAIR      81  71  71 SW9       30.04S
PINE BLUFF     FAIR      80  69  69 SW9       30.04S
MONTICELLO     FAIR      81  70  69 SW8       30.06R


...NORTH MISSISSIPPI...

CITY           SKY/WX    TMP DP  RH WIND       PRES   REMARKS
TUPELO         FAIR      83  71  67 S5        30.07S
OXFORD         FAIR      81  70  69 VRB5      30.08S
BATESVILLE     FAIR      82  73  74 SW3       30.06S
OLIVE BRANCH   MOSUNNY   82  68  61 S9        30.06S
TUNICA           N/A     82  70  65 S7        30.05S
CLARKSDALE     SUNNY     88  73  62 S9        30.05S HX  96
CORINTH        FAIR      81  70  69 VRB3      30.06F
GREENWOOD      FAIR      82  72  71 S8        30.06F
COLUMBUS         N/A    N/A N/A N/A MISG        N/A
STARKVILLE     FAIR      81  72  74 SW3       30.09F
GOLDEN TRIANGL FAIR      84  72  65 VRB3      30.08F


...SOUTHEAST MISSOURI...

CITY           SKY/WX    TMP DP  RH WIND       PRES   REMARKS
KENNETT        FAIR      84  72  65 SW14      30.00S
MALDEN         FAIR      81  70  69 SW8       30.01F
WEST PLAINS    SUNNY     77  68  73 S9        30.01F
POPLAR BLUFF   FAIR      79  71  76 SW8       30.00F
CAPE GIRARDEAU FAIR      80  69  69 S6        29.99F


...NORTHWEST ALABAMA...

CITY           SKY/WX    TMP DP  RH WIND       PRES   REMARKS
MUSCLE SHOALS  FAIR      83  69  62 CALM      30.10R


...MIDDLE TENNESSEE...

CITY           SKY/WX    TMP DP  RH WIND       PRES   REMARKS
NASHVILLE      FAIR      86  66  51 W9        30.07S
CLARKSVILLE    FAIR      78  68  71 CALM      30.05S
DICKSON        SUNNY     81  68  65 W9        30.06F
COLUMBIA       SUNNY     81  72  74 SW8       30.07S
LAWRENCEBURG   SUNNY     81  68  65 CALM      30.10S
LEWISBURG      SUNNY     82  70  65 W6        30.08F


...WESTERN KENTUCKY...

CITY           SKY/WX    TMP DP  RH WIND       PRES   REMARKS
PADUCAH        FAIR      79  69  71 SW6       30.01S
FORT CAMPBELL  FAIR      79  70  74 SW3       30.05R


...CENTRAL ARKANSAS...

CITY           SKY/WX    TMP DP  RH WIND       PRES   REMARKS
LITTLE ROCK    CLOUDY    81  69  67 SW8       30.03S


SKY/WX REPORTED AS FAIR MEANS FEW OR NO CLOUDS BELOW
12 THOUSAND FEET.




USA.gov is the U.S. government's official web portal to all federal, state and local government web resources and services.